This is the latest recevied weather packets stored in our database for station/object VA3JLF-1. If no packets are shown the sender has not sent any weather packets the latest 10 day(s).
| Time | Temp. | Humidity | Pressure | Rain* | Wind** | Luminosity | Snow |
|---|---|---|---|---|---|---|---|
| 1777502757 | 10.56° C | 99% | 1003.3 hPa | 3.05 mm | - | - | - |
| 1777502158 | 10.56° C | 99% | 1003.3 hPa | 3.3 mm | - | - | - |
| 1777501557 | 10° C | 99% | 1003.3 hPa | 3.56 mm | - | - | - |
| 1777500958 | 10.56° C | 99% | 1003.3 hPa | 3.56 mm | - | - | - |
| 1777500357 | 10.56° C | 99% | 1003.7 hPa | 3.3 mm | - | - | - |
| 1777499758 | 10.56° C | 99% | 1003.8 hPa | 3.3 mm | - | - | - |
| 1777499158 | 10.56° C | 99% | 1003.8 hPa | 2.79 mm | - | - | - |
| 1777498558 | 10.56° C | 99% | 1003.8 hPa | 2.29 mm | - | - | - |
| 1777497957 | 10.56° C | 99% | 1004.3 hPa | 1.78 mm | - | - | - |
| 1777497357 | 11.11° C | 99% | 1004.7 hPa | 1.52 mm | - | - | - |
| 1777496757 | 11.11° C | 99% | 1004.3 hPa | 1.78 mm | - | - | - |
| 1777496157 | 11.11° C | 99% | 1004.2 hPa | 1.78 mm | - | - | - |
| 1777495559 | 11.11° C | 99% | 1004.2 hPa | 1.52 mm | - | - | - |
| 1777494957 | 11.11° C | 99% | 1003.9 hPa | 1.78 mm | - | - | - |
| 1777494358 | 11.11° C | 99% | 1003.9 hPa | 1.78 mm | - | - | - |
| 1777493757 | 11.11° C | 99% | 1003.8 hPa | 1.78 mm | - | - | - |
| 1777493157 | 11.67° C | 99% | 1004.5 hPa | 1.27 mm | - | - | - |
| 1777492558 | 11.67° C | 99% | 1004.7 hPa | 1.02 mm | - | - | - |
| 1777491957 | 11.67° C | 99% | 1004.9 hPa | 0.76 mm | - | - | - |
| 1777491357 | 11.67° C | 99% | 1005 hPa | 0.51 mm | - | - | - |
| 1777490757 | 11.67° C | 99% | 1005.1 hPa | 0.51 mm | - | - | - |
| 1777490157 | 11.67° C | 99% | 1005.4 hPa | 0.51 mm | - | - | - |
| 1777489557 | 11.67° C | 99% | 1005.3 hPa | 0.51 mm | - | - | - |
| 1777488958 | 11.11° C | 99% | 1005.7 hPa | 0.51 mm | - | - | - |
| 1777488357 | 11.11° C | 99% | 1005.7 hPa | 0.51 mm | - | - | - |
* Rain latest hour (hover to see other rain measurements)
** Current wind speed in m/s (hover to see current wind gust speed)